Location: Camden Lake
(44.4269°N, 76.8469°W)
Time: 18:46:57
(UTC-04:00)

Daily predictions for brighter satellites

Satellite Brightness Start Highest point End
(mag) Time Altitude Azimuth Time Altitude Azimuth Time Altitude Azimuth
Geosat 4.2 19:18:05 10° SE 19:22:59 56° ENE 19:27:55 10° NNW
ATLAS 2AS CENTAUR R/B 4.4 19:18:19 10° NNW 19:24:43 24° NNE 19:30:55 10° ENE
Cosmos 1943 4.0 19:19:35 10° SW 19:25:11 58° WNW 19:30:49 10° NNE
ALOS 2.3 19:20:36 10° SSE 19:25:12 62° ENE 19:29:50 10° N
Meteor 1-15 Rocket 4.5 19:19:54 10° S 19:25:48 84° W 19:31:38 10° N
USA 81 4.3 19:21:08 10° N 19:26:17 49° E 19:31:23 10° SSE
Cosmos 2292 Rocket 4.0 19:23:35 10° SSW 19:26:35 44° W 19:29:26 10° N
Cosmos 1271 Rocket 2.8 19:23:10 10° S 19:26:57 86° W 19:30:49 10° N
Cosmos 2150 Rocket 4.1 19:21:54 10° NNW 19:27:15 79° ENE 19:32:40 10° SSE
COSMO-SKYMED 1 2.8 19:25:51 10° N 19:30:13 77° WNW 19:34:32 10° SSW
USA 229 DEB 4.3 19:23:48 10° NW 19:30:54 66° WSW 19:38:07 10° SSE
USA 229 4.3 19:23:54 10° NW 19:31:00 66° WSW 19:38:13 10° SSE
Cosmos 2181 Rocket 4.0 19:28:46 10° N 19:35:00 80° E 19:41:08 10° S
NOSS 3-1 (A) 4.2 19:27:56 10° NNW 19:35:22 64° NE 19:43:39 10° SE
Cosmos 1758 Rocket 3.7 19:31:40 10° N 19:36:11 89° WSW 19:40:41 10° S
Cosmos 841 Rocket 3.6 19:33:52 10° S 19:38:49 52° ESE 19:43:49 10° NNE
Cosmos 468 Rocket 4.4 19:34:49 10° SSW 19:40:00 69° WNW 19:45:18 10° NNE
Cosmos 1340 Rocket 3.2 19:36:08 10° NNW 19:40:12 70° W 19:44:16 10° S
Cosmos 1937 Rocket 3.9 19:36:07 10° NNW 19:41:25 72° WSW 19:46:39 10° S
Cosmos 1726 Rocket 3.5 19:37:57 10° S 19:42:18 86° E 19:46:40 10° N
FREGAT/IRIS 2.7 19:40:29 10° SSE 19:43:27 54° ENE 19:46:26 10° N
Cosmos 389 Rocket 3.1 19:40:09 10° SSW 19:43:36 60° WNW 19:47:03 10° N
NOSS 3-1 (C) 4.1 19:36:30 10° NW 19:44:04 86° NE 19:52:31 10° SE
Cosmos 2084 3.2 19:44:10 10° SW 19:48:14 84° SE 19:52:09 10° NE
Cosmos 2074 Rocket 4.1 19:44:11 10° SSE 19:50:09 52° E 19:56:08 10° NNE
CZ-2D R/B 4.1 19:48:29 10° SE 19:51:47 29° ENE 19:55:07 10° N
Cosmos 1943 Rocket 3.6 19:48:11 10° NW 19:53:23 40° WSW 19:58:34 10° S
Cosmos 540 Rocket 3.9 19:51:11 10° SSE 19:55:49 37° ESE 20:00:29 10° NE
Cosmos 1763 Rocket 3.6 19:52:58 10° SSW 19:58:05 82° WNW 20:03:18 10° NNE
Meteor 1-24 Rocket 3.8 19:53:46 10° N 19:59:45 66° ENE 20:05:30 10° SSE
HJ-1C 3.4 19:57:42 10° SSE 20:00:59 59° ENE 20:04:18 10° N
Cosmos 2228 3.2 20:03:39 10° SSW 20:07:59 76° W 20:12:21 10° N
Cosmos 1697 Rocket 4.4 20:06:53 10° N 20:10:16 16° NE 20:12:25 13° ENE
Cosmos 1980 Rocket 4.3 20:09:54 10° NNE 20:11:12 11° NE 20:12:29 10° NE
SJ-6B 2.8 20:09:43 10° SSE 20:13:43 85° WSW 20:17:40 10° NNW
Nadezhda 3 Rocket 4.2 20:10:58 10° N 20:17:03 47° ENE 20:23:02 10° SSE
Cosmos 1953 3.4 20:17:36 24° E 20:17:36 24° E 20:20:50 10° NE
Resurs 01 Rocket 1.8 20:14:19 14° SE 20:17:57 49° ENE 20:22:13 10° N
Cosmos 1356 Rocket 3.8 20:14:58 10° NNW 20:19:16 67° W 20:23:32 10° S
GP-B 3.5 20:15:30 10° NNE 20:19:43 41° E 20:23:34 12° SSE
Meteor 2-8 Rocket 4.4 20:15:11 10° N 20:21:19 72° E 20:27:24 10° SSE
Cosmos 1812 Rocket 3.7 20:17:32 10° SSE 20:21:50 49° E 20:26:09 10° NNE
Thor Agena Rocket 4.2 20:18:12 10° N 20:23:22 59° WNW 20:28:28 10° SSW
H-2A R/B 3.5 20:22:05 10° S 20:25:44 52° W 20:29:25 10° NNW
Cosmos 2184 Rocket 4.1 20:21:33 10° S 20:27:52 86° W 20:34:18 10° N
Cosmos 2058 Rocket 4.4 20:23:56 10° SSW 20:28:04 42° WNW 20:32:16 10° N
Spot 2 Rocket 3.5 20:24:52 16° SE 20:28:45 57° ENE 20:33:42 10° N
BREEZE-M DEB (TANK) 2.1 20:30:59 10° NW 20:32:50 34° N 20:32:50 34° N
Cosmos 836 Rocket 4.4 20:28:17 10° SSW 20:33:35 84° ESE 20:38:52 10° NNE
Cosmos 1610 Rocket 4.5 20:27:38 10° S 20:33:59 77° E 20:40:23 10° N
USA 186 3.0 20:36:33 22° N 20:36:33 22° N 20:37:35 10° N
Meteor 2-19 Rocket 4.3 20:29:27 10° S 20:35:27 69° E 20:41:28 10° NNE
Cosmos 292 Rocket 4.1 20:35:07 10° S 20:39:39 41° ESE 20:44:14 10° NE
Milstar 3 Cent rocket 4.0 20:40:51 10° S 20:42:05 11° S 20:42:11 11° S
YAOGAN 6 3.9 20:46:00 27° NE 20:46:00 27° NE 20:48:13 10° N
COSMOS 2406 3.4 20:40:13 10° SSW 20:45:55 75° WNW 20:51:42 10° NNE
Okean 3 Rocket 3.8 20:42:18 10° N 20:46:38 45° ENE 20:46:57 44° E
Cosmos 783 Rocket 4.5 20:41:42 10° S 20:46:47 56° ESE 20:51:52 10° NNE
Cosmos 1766 4.2 20:43:17 10° SSW 20:47:05 48° WNW 20:50:54 10° N
MOS 1-B Rocket 3.8 20:43:09 13° SSE 20:48:48 83° ENE 20:54:27 10° NNW
ISS -1.8 20:45:52 10° SSW 20:47:03 19° SSW 20:47:03 19° SSW
Helios 1A 4.3 20:50:32 25° NE 20:50:32 25° NE 20:53:09 10° N
Cosmos 1544 4.0 20:46:47 10° SSW 20:50:17 49° WNW 20:53:50 10° N
ERS-1 Rocket 4.3 20:52:01 24° NE 20:52:01 24° NE 20:55:29 10° N
SL-8 Rocket 4.4 20:50:55 36° E 20:51:32 37° E 20:57:06 10° NNE
Cosmos 1125 Rocket 3.9 20:47:35 10° NNW 20:52:50 62° WSW 20:57:04 16° S
Cosmos 1356 3.8 20:51:46 10° NNW 20:55:13 61° W 20:56:11 41° SSW
Cosmos 372 Rocket 4.3 20:52:04 10° NNW 20:57:17 64° WSW 21:00:50 20° S
Cosmos 2369 3.9 20:52:36 10° NNW 20:58:08 51° ENE 20:59:14 44° E
Cosmos 1674 2.5 20:54:30 10° N 20:58:04 75° NE 20:58:04 75° NE
BREEZE-M DEB (TANK) 3.1 20:48:07 10° WSW 20:58:19 68° SSE 20:59:22 50° E
Meteor 1-21 Rocket 4.1 20:54:19 10° N 21:00:05 76° ENE 21:02:33 35° SSE
Envisat 3.0 20:57:59 24° S 21:01:08 80° WSW 21:06:15 10° NNW
Cosmos 1758 3.2 20:59:36 31° S 21:01:27 87° WNW 21:05:28 10° N
Cosmos 962 Rocket 4.4 21:03:12 10° S 21:09:34 82° E 21:15:58 10° N
Cosmos 1939 Rocket 2.9 21:14:51 71° NW 21:14:51 71° NW 21:18:28 10° NNW
H-2A R/B 3.7 21:18:39 19° NE 21:18:39 19° NE 21:20:51 10° NNE
SJ-11-01 4.2 21:16:35 69° S 21:17:09 86° W 21:21:55 10° NNW
ATLAS 2AS CENTAUR R/B 3.1 21:09:32 10° NNW 21:17:32 60° NE 21:19:38 46° E
Cosmos 1076 Rocket 4.0 21:27:23 10° NNW 21:31:02 58° NW 21:31:02 58° NW
Cosmos 2278 3.5 21:27:07 10° NNW 21:32:49 89° ENE 21:33:05 82° SE
Cosmos 2322 Rocket 4.1 21:41:44 10° N 21:44:25 17° NNE 21:44:25 17° NNE
Cosmos 1953 4.3 21:53:14 25° W 21:53:52 26° WNW 21:57:21 10° NNW
Resurs 01 Rocket 4.2 21:51:54 10° SW 21:54:42 17° W 21:57:37 10° NW
Cosmos 1697 Rocket 3.0 21:49:30 10° NNW 21:54:10 59° N 21:54:10 59° N
Cosmos 1656 3.9 21:50:27 10° NNW 21:55:33 67° WNW 21:55:33 67° WNW
Cosmos 1980 Rocket 3.1 21:51:10 10° NNW 21:55:07 39° NNE 21:55:07 39° NNE
FALCON 9 R/B 3.9 21:53:21 10° WSW 21:55:15 24° SW 21:55:15 24° SW
Cosmos 2366 rocket 4.2 22:09:14 68° NNW 22:09:14 68° NNW 22:14:48 10° N
Cosmos 2218 Rocket 4.2 22:12:20 66° WNW 22:12:20 66° WNW 22:18:20 10° N
ARGOS 4.3 22:24:04 40° NNW 22:24:04 40° NNW 22:27:33 10° NNW
SL-16 R/B 4.0 22:18:28 10° N 22:21:08 23° NNE 22:21:08 23° NNE
CZ-3A R/B 4.1 22:29:03 10° WNW 22:48:27 64° NNE 22:48:58 62° NE
H-2A R/B 4.3 22:59:17 21° NNW 22:59:17 21° NNW 23:01:00 10° NNW
ATLAS 2AS CENTAUR R/B 4.0 23:01:08 10° NW 23:07:04 35° W 23:07:04 35° W
Cosmos 2082 Rocket 4.5 23:16:03 18° N 23:16:03 18° N 23:17:50 10° N
Cosmos 2322 Rocket 4.5 23:24:41 10° NNW 23:26:13 19° NNW 23:26:13 19° NNW
